Location: Unnamed
(50.1182°N, 14.4935°E)
Time: 10:32:18
(UTC+02:00)

ISS - Visible Passes

Search period start: 03 April 2020 00:00
Search period end: 13 April 2020 00:00
Orbit: 418 x 423 km, 51.6° (Epoch: 03 April)

Date Brightness Start Highest point End Pass type
(mag) Time Alt. Az. Time Alt. Az. Time Alt. Az.
03 Apr -1.9 21:02:43 10° W 21:05:25 22° SW 21:07:19 14° S visible
04 Apr -2.3 20:15:21 10° W 20:18:24 32° SSW 20:21:26 10° SSE visible
05 Apr -0.8 21:07:21 10° SW 21:07:29 10° SW 21:07:37 10° SW visible
06 Apr -1.1 20:18:30 10° W 20:20:32 15° SW 20:22:34 10° S visible
